owner,sensor,date,latitude,longitude,vertical_datum,wind_speed,wind_to_direction,wind_speed_of_gust,qcFlag 
COMPS,ioos:station:USF.COMPS:C10:1,2015-10-01T00:05:00Z,27.1690,-82.9260,3.0,5.323,348.22,7.17,'1111122,1111122,1111122' 
COMPS,ioos:station:USF.COMPS:C10:1,2015-10-01T00:35:00Z,27.1690,-82.9260,3.0,4.513,338.583,5.593,'1111122,1111122,1111122' 
COMPS,ioos:station:USF.COMPS:C10:1,2015-10-01T01:05:00Z,27.1690,-82.9260,3.0,3.939,338.206,5.103,'1111122,1111122,1111122' 
COMPS,ioos:station:USF.COMPS:C10:1,2015-10-01T01:35:00Z,27.1690,-82.9260,3.0,3.728,334.934,4.603,'1111122,1111122,1111122' 
COMPS,ioos:station:USF.COMPS:C10:1,2015-10-01T02:05:00Z,27.1690,-82.9260,3.0,4.796,322.09,6.473,'1111122,1111122,1111122' 
COMPS,ioos:station:USF.COMPS:C10:1,2015-10-01T02:35:00Z,27.1690,-82.9260,3.0,4.811,323.156,6.283,'1111122,1111122,1111122' 
COMPS,ioos:station:USF.COMPS:C10:1,2015-10-01T04:05:00Z,27.1690,-82.9260,3.0,5.575,318.037,6.8,'1111122,1111122,1111122' 
COMPS,ioos:station:USF.COMPS:C10:1,2015-10-01T04:35:00Z,27.1690,-82.9260,3.0,5.457,319.076,7.24,'1111122,1111122,1111122' 
COMPS,ioos:station:USF.COMPS:C10:1,2015-10-01T05:05:00Z,27.1690,-82.9260,3.0,6.328,313.911,7.68,'1111122,1111122,1111122' 
COMPS,ioos:station:USF.COMPS:C10:1,2015-10-01T05:35:00Z,27.1690,-82.9260,3.0,6.474,310.631,7.8,'1111122,1111122,1111122' 
COMPS,ioos:station:USF.COMPS:C10:1,2015-10-01T06:05:00Z,27.1690,-82.9260,3.0,6.027,313.856,7.273,'1111122,1111122,1111122' 
COMPS,ioos:station:USF.COMPS:C10:1,2015-10-01T06:35:00Z,27.1690,-82.9260,3.0,6.233,312.893,7.187,'1111122,1111122,1111122' 
COMPS,ioos:station:USF.COMPS:C10:1,2015-10-01T07:05:00Z,27.1690,-82.9260,3.0,6.627,309.849,7.847,'1111122,1111122,1111122' 
COMPS,ioos:station:USF.COMPS:C10:1,2015-10-01T07:35:00Z,27.1690,-82.9260,3.0,6.918,310.554,8.51,'1111122,1111122,1111122' 
COMPS,ioos:station:USF.COMPS:C10:1,2015-10-01T08:05:00Z,27.1690,-82.9260,3.0,7.002,314.535,8.733,'1111122,1111122,1111122' 
COMPS,ioos:station:USF.COMPS:C10:1,2015-10-01T08:35:00Z,27.1690,-82.9260,3.0,6.909,315.734,8.85,'1111122,1111122,1111122' 
COMPS,ioos:station:USF.COMPS:C10:1,2015-10-01T09:05:00Z,27.1690,-82.9260,3.0,6.523,324.106,7.767,'1111122,1111122,1111122' 
COMPS,ioos:station:USF.COMPS:C10:1,2015-10-01T09:35:00Z,27.1690,-82.9260,3.0,5.983,323.774,7.323,'1111122,1111122,1111122' 
COMPS,ioos:station:USF.COMPS:C10:1,2015-10-01T11:05:00Z,27.1690,-82.9260,3.0,5.434,341.133,7.223,'1111122,1111122,1111122' 
COMPS,ioos:station:USF.COMPS:C10:1,2015-10-01T11:35:00Z,27.1690,-82.9260,3.0,6.256,342.078,7.633,'1111122,1111122,1111122' 
COMPS,ioos:station:USF.COMPS:C10:1,2015-10-01T12:05:00Z,27.1690,-82.9260,3.0,5.839,333.836,6.907,'1111122,1111122,1111122' 
COMPS,ioos:station:USF.COMPS:C10:1,2015-10-01T12:35:00Z,27.1690,-82.9260,3.0,5.932,331.896,7.443,'1111122,1111122,1111122' 
COMPS,ioos:station:USF.COMPS:C10:1,2015-10-01T13:05:00Z,27.1690,-82.9260,3.0,5.828,326.249,7.107,'1111122,1111122,1111122' 
COMPS,ioos:station:USF.COMPS:C10:1,2015-10-01T13:35:00Z,27.1690,-82.9260,3.0,5.245,321.203,6.553,'1111122,1111122,1111122' 
COMPS,ioos:station:USF.COMPS:C10:1,2015-10-01T14:05:00Z,27.1690,-82.9260,3.0,4.596,324.505,5.813,'1111122,1111122,1111122' 
COMPS,ioos:station:USF.COMPS:C10:1,2015-10-01T14:35:00Z,27.1690,-82.9260,3.0,5.351,320.374,6.707,'1111122,1111122,1111122' 
COMPS,ioos:station:USF.COMPS:C10:1,2015-10-01T15:05:00Z,27.1690,-82.9260,3.0,4.856,307.519,5.983,'1111122,1111122,1111122' 
COMPS,ioos:station:USF.COMPS:C10:1,2015-10-01T15:35:00Z,27.1690,-82.9260,3.0,5.351,301.169,6.66,'1111122,1111122,1111122' 
COMPS,ioos:station:USF.COMPS:C10:1,2015-10-01T16:05:00Z,27.1690,-82.9260,3.0,5.754,307.65,6.813,'1111122,1111122,1111122' 
COMPS,ioos:station:USF.COMPS:C10:1,2015-10-01T16:35:00Z,27.1690,-82.9260,3.0,5.098,311.956,6.207,'1111122,1111122,1111122' 
COMPS,ioos:station:USF.COMPS:C10:1,2015-10-01T17:05:00Z,27.1690,-82.9260,3.0,5.772,312.934,7.02,'1111122,1111122,1111122' 
COMPS,ioos:station:USF.COMPS:C10:1,2015-10-01T17:35:00Z,27.1690,-82.9260,3.0,5.674,321.585,6.947,'1111122,1111122,1111122' 
COMPS,ioos:station:USF.COMPS:C10:1,2015-10-01T18:05:00Z,27.1690,-82.9260,3.0,5.066,324.784,6.103,'1111122,1111122,1111122' 
COMPS,ioos:station:USF.COMPS:C10:1,2015-10-01T18:35:00Z,27.1690,-82.9260,3.0,5.341,332.931,6.523,'1111122,1111122,1111122' 
COMPS,ioos:station:USF.COMPS:C10:1,2015-10-01T19:05:00Z,27.1690,-82.9260,3.0,5.166,334.158,6.76,'1111122,1111122,1111122' 
COMPS,ioos:station:USF.COMPS:C10:1,2015-10-01T19:35:00Z,27.1690,-82.9260,3.0,4.747,355.251,6.073,'1111122,1111122,1111122' 
COMPS,ioos:station:USF.COMPS:C10:1,2015-10-01T20:05:00Z,27.1690,-82.9260,3.0,5.287,346.492,6.5,'1111122,1111122,1111122' 
COMPS,ioos:station:USF.COMPS:C10:1,2015-10-01T20:35:00Z,27.1690,-82.9260,3.0,5.12,344.983,6.407,'1111122,1111122,1111122' 
COMPS,ioos:station:USF.COMPS:C10:1,2015-10-01T22:05:00Z,27.1690,-82.9260,3.0,6.024,325.884,7.693,'1111122,1111122,1111122' 
COMPS,ioos:station:USF.COMPS:C10:1,2015-10-01T23:05:00Z,27.1690,-82.9260,3.0,6.634,329.252,8.163,'1111122,1111122,1111122' 
COMPS,ioos:station:USF.COMPS:C10:1,2015-10-01T23:35:00Z,27.1690,-82.9260,3.0,6.102,329.747,7.497,'1111122,1111122,1111122' 
COMPS,ioos:station:USF.COMPS:C10:1,2015-10-02T00:05:00Z,27.1690,-82.9260,3.0,6.074,319.049,7.2,'1111122,1111122,1111122' 
COMPS,ioos:station:USF.COMPS:C10:1,2015-10-02T00:35:00Z,27.1690,-82.9260,3.0,6.462,329.273,8.257,'1111122,1111122,1111122' 
COMPS,ioos:station:USF.COMPS:C10:1,2015-10-02T01:05:00Z,27.1690,-82.9260,3.0,7.715,334.089,8.893,'1111122,1111122,1111122' 
COMPS,ioos:station:USF.COMPS:C10:1,2015-10-02T01:35:00Z,27.1690,-82.9260,3.0,8.007,328.917,10.09,'1111122,1111122,1111122' 
COMPS,ioos:station:USF.COMPS:C10:1,2015-10-02T07:05:00Z,27.1690,-82.9260,3.0,7.001,343.886,8.41,'1111122,1111122,1111122' 
COMPS,ioos:station:USF.COMPS:C10:1,2015-10-02T07:35:00Z,27.1690,-82.9260,3.0,7.959,351.979,9.76,'1111122,1111122,1111122' 
COMPS,ioos:station:USF.COMPS:C10:1,2015-10-02T09:05:00Z,27.1690,-82.9260,3.0,8.847,342.156,10.393,'1111122,1111122,1111122' 
COMPS,ioos:station:USF.COMPS:C10:1,2015-10-02T09:35:00Z,27.1690,-82.9260,3.0,8.783,341.497,10.253,'1111122,1111122,1111122' 
COMPS,ioos:station:USF.COMPS:C10:1,2015-10-02T13:05:00Z,27.1690,-82.9260,3.0,7.5,339.574,9.667,'1111122,1111122,1111122' 
COMPS,ioos:station:USF.COMPS:C10:1,2015-10-02T13:35:00Z,27.1690,-82.9260,3.0,7.605,339.135,9.687,'1111122,1111122,1111122' 
COMPS,ioos:station:USF.COMPS:C10:1,2015-10-02T14:05:00Z,27.1690,-82.9260,3.0,6.55,343.406,8.263,'1111122,1111122,1111122' 
COMPS,ioos:station:USF.COMPS:C10:1,2015-10-02T14:35:00Z,27.1690,-82.9260,3.0,7.012,329.308,8.677,'1111122,1111122,1111122' 
COMPS,ioos:station:USF.COMPS:C10:1,2015-10-03T04:05:00Z,27.1690,-82.9260,3.0,8.818,300.931,11.48,'1111122,1111122,1111122' 
COMPS,ioos:station:USF.COMPS:C10:1,2015-10-03T04:35:00Z,27.1690,-82.9260,3.0,8.336,296.953,10.427,'1111122,1111122,1111122' 
COMPS,ioos:station:USF.COMPS:C10:1,2015-10-03T05:05:00Z,27.1690,-82.9260,3.0,8.479,296.61,10.777,'1111122,1111122,1111122' 
COMPS,ioos:station:USF.COMPS:C10:1,2015-10-03T05:35:00Z,27.1690,-82.9260,3.0,8.206,294.231,10.06,'1111122,1111122,1111122' 
COMPS,ioos:station:USF.COMPS:C10:1,2015-10-03T06:05:00Z,27.1690,-82.9260,3.0,7.425,300.51,10.743,'1111122,1111122,1111122' 
COMPS,ioos:station:USF.COMPS:C10:1,2015-10-03T06:35:00Z,27.1690,-82.9260,3.0,7.567,300.158,9.98,'1111122,1111122,1111122' 
COMPS,ioos:station:USF.COMPS:C10:1,2015-10-03T07:05:00Z,27.1690,-82.9260,3.0,7.696,302.516,9.58,'1111122,1111122,1111122' 
COMPS,ioos:station:USF.COMPS:C10:1,2015-10-03T07:35:00Z,27.1690,-82.9260,3.0,8.492,300.256,10.227,'1111122,1111122,1111122' 
COMPS,ioos:station:USF.COMPS:C10:1,2015-10-03T08:05:00Z,27.1690,-82.9260,3.0,8.234,301.239,10.073,'1111122,1111122,1111122' 
COMPS,ioos:station:USF.COMPS:C10:1,2015-10-03T08:35:00Z,27.1690,-82.9260,3.0,8.134,295.631,10.037,'1111122,1111122,1111122' 
COMPS,ioos:station:USF.COMPS:C10:1,2015-10-03T09:05:00Z,27.1690,-82.9260,3.0,8.151,325.568,9.973,'1111122,1111122,1111122' 
COMPS,ioos:station:USF.COMPS:C10:1,2015-10-03T09:35:00Z,27.1690,-82.9260,3.0,7.472,317.423,9.55,'1111122,1111122,1111122' 
COMPS,ioos:station:USF.COMPS:C10:1,2015-10-03T10:05:00Z,27.1690,-82.9260,3.0,6.984,311.632,8.907,'1111122,1111122,1111122' 
COMPS,ioos:station:USF.COMPS:C10:1,2015-10-03T10:35:00Z,27.1690,-82.9260,3.0,7.29,304.771,9.29,'1111122,1111122,1111122' 
COMPS,ioos:station:USF.COMPS:C10:1,2015-10-03T11:05:00Z,27.1690,-82.9260,3.0,8.337,320.541,10.957,'1111122,1111122,1111122' 
COMPS,ioos:station:USF.COMPS:C10:1,2015-10-03T11:35:00Z,27.1690,-82.9260,3.0,6.919,314.121,9.227,'1111122,1111122,1111122' 
COMPS,ioos:station:USF.COMPS:C10:1,2015-10-03T12:05:00Z,27.1690,-82.9260,3.0,7.381,307.959,9.82,'1111122,1111122,1111122' 
COMPS,ioos:station:USF.COMPS:C10:1,2015-10-03T12:35:00Z,27.1690,-82.9260,3.0,10.865,281.415,13.36,'1111122,1111122,1111122' 
COMPS,ioos:station:USF.COMPS:C10:1,2015-10-03T13:05:00Z,27.1690,-82.9260,3.0,8.757,272.101,11.767,'1111122,1111122,1111122' 
COMPS,ioos:station:USF.COMPS:C10:1,2015-10-03T13:35:00Z,27.1690,-82.9260,3.0,7.901,280.634,10.57,'1111122,1111122,1111122' 
COMPS,ioos:station:USF.COMPS:C10:1,2015-10-03T14:05:00Z,27.1690,-82.9260,3.0,8.949,288.433,12.007,'1111122,1111122,1111122' 
COMPS,ioos:station:USF.COMPS:C10:1,2015-10-03T14:35:00Z,27.1690,-82.9260,3.0,6.735,290.187,9.06,'1111122,1111122,1111122' 
COMPS,ioos:station:USF.COMPS:C10:1,2015-10-03T15:05:00Z,27.1690,-82.9260,3.0,11.967,294.087,15.69,'1111122,1111122,1111122' 
COMPS,ioos:station:USF.COMPS:C10:1,2015-10-03T15:35:00Z,27.1690,-82.9260,3.0,5.732,331.927,10.07,'1111122,1111122,1111122' 
COMPS,ioos:station:USF.COMPS:C10:1,2015-10-03T16:05:00Z,27.1690,-82.9260,3.0,5.592,335.117,6.937,'1111122,1111122,1111122' 
COMPS,ioos:station:USF.COMPS:C10:1,2015-10-03T16:35:00Z,27.1690,-82.9260,3.0,8.836,316.044,11.347,'1111122,1111122,1111122' 
COMPS,ioos:station:USF.COMPS:C10:1,2015-10-03T17:05:00Z,27.1690,-82.9260,3.0,8.579,321.614,11.27,'1111122,1111122,1111122' 
COMPS,ioos:station:USF.COMPS:C10:1,2015-10-03T17:35:00Z,27.1690,-82.9260,3.0,8.851,316.646,10.87,'1111122,1111122,1111122' 
COMPS,ioos:station:USF.COMPS:C10:1,2015-10-03T18:05:00Z,27.1690,-82.9260,3.0,8.92,314.641,11.63,'1111122,1111122,1111122' 
COMPS,ioos:station:USF.COMPS:C10:1,2015-10-03T18:35:00Z,27.1690,-82.9260,3.0,8.192,324.807,10.507,'1111122,1111122,1111122' 
COMPS,ioos:station:USF.COMPS:C10:1,2015-10-03T19:05:00Z,27.1690,-82.9260,3.0,9.04,327.467,11.397,'1111122,1111122,1111122' 
COMPS,ioos:station:USF.COMPS:C10:1,2015-10-03T19:35:00Z,27.1690,-82.9260,3.0,8.46,339.123,11.163,'1111122,1111122,1111122' 
COMPS,ioos:station:USF.COMPS:C10:1,2015-10-03T20:05:00Z,27.1690,-82.9260,3.0,7.361,337.31,10.183,'1111122,1111122,1111122' 
COMPS,ioos:station:USF.COMPS:C10:1,2015-10-03T20:35:00Z,27.1690,-82.9260,3.0,8.359,329.414,10.687,'1111122,1111122,1111122' 
COMPS,ioos:station:USF.COMPS:C10:1,2015-10-03T22:05:00Z,27.1690,-82.9260,3.0,7.997,327.184,10.67,'1111122,1111122,1111122' 
COMPS,ioos:station:USF.COMPS:C10:1,2015-10-03T22:35:00Z,27.1690,-82.9260,3.0,7.906,323.62,10.033,'1111122,1111122,1111122' 
COMPS,ioos:station:USF.COMPS:C10:1,2015-10-03T23:05:00Z,27.1690,-82.9260,3.0,7.363,333.201,9.963,'1111122,1111122,1111122' 
COMPS,ioos:station:USF.COMPS:C10:1,2015-10-03T23:35:00Z,27.1690,-82.9260,3.0,8.534,336.83,11.153,'1111122,1111122,1111122' 
COMPS,ioos:station:USF.COMPS:C10:1,2015-10-04T00:05:00Z,27.1690,-82.9260,3.0,5.164,329.836,9.473,'1111122,1111122,1111122' 
COMPS,ioos:station:USF.COMPS:C10:1,2015-10-04T00:35:00Z,27.1690,-82.9260,3.0,5.696,323.899,10.353,'1111122,1111122,1111122' 
COMPS,ioos:station:USF.COMPS:C10:1,2015-10-04T02:05:00Z,27.1690,-82.9260,3.0,5.082,330.76,6.637,'1111122,1111122,1111122' 
COMPS,ioos:station:USF.COMPS:C10:1,2015-10-04T02:35:00Z,27.1690,-82.9260,3.0,7.954,332.462,13.687,'1111122,1111122,1111122' 
COMPS,ioos:station:USF.COMPS:C10:1,2015-10-04T04:05:00Z,27.1690,-82.9260,3.0,7.156,306.85,9.02,'1111122,1111122,1111122' 
COMPS,ioos:station:USF.COMPS:C10:1,2015-10-04T04:35:00Z,27.1690,-82.9260,3.0,7.689,305.592,10.157,'1111122,1111122,1111122' 
COMPS,ioos:station:USF.COMPS:C10:1,2015-10-04T05:05:00Z,27.1690,-82.9260,3.0,7.478,320.968,9.647,'1111122,1111122,1111122' 
COMPS,ioos:station:USF.COMPS:C10:1,2015-10-04T05:35:00Z,27.1690,-82.9260,3.0,6.867,314.95,8.803,'1111122,1111122,1111122' 
COMPS,ioos:station:USF.COMPS:C10:1,2015-10-04T06:05:00Z,27.1690,-82.9260,3.0,6.615,320.58,8.327,'1111122,1111122,1111122' 
COMPS,ioos:station:USF.COMPS:C10:1,2015-10-04T06:35:00Z,27.1690,-82.9260,3.0,7.284,319.187,9.653,'1111122,1111122,1111122' 
COMPS,ioos:station:USF.COMPS:C10:1,2015-10-04T07:05:00Z,27.1690,-82.9260,3.0,7.276,307.4,10.003,'1111122,1111122,1111122' 
COMPS,ioos:station:USF.COMPS:C10:1,2015-10-04T07:35:00Z,27.1690,-82.9260,3.0,7.739,321.192,9.623,'1111122,1111122,1111122' 
COMPS,ioos:station:USF.COMPS:C10:1,2015-10-04T08:05:00Z,27.1690,-82.9260,3.0,8.095,318.822,10.97,'1111122,1111122,1111122' 
COMPS,ioos:station:USF.COMPS:C10:1,2015-10-04T08:35:00Z,27.1690,-82.9260,3.0,7.475,311.381,10.183,'1111122,1111122,1111122' 
COMPS,ioos:station:USF.COMPS:C10:1,2015-10-04T09:05:00Z,27.1690,-82.9260,3.0,7.06,310.217,9.273,'1111122,1111122,1111122' 
COMPS,ioos:station:USF.COMPS:C10:1,2015-10-04T09:35:00Z,27.1690,-82.9260,3.0,6.967,302.882,9.747,'1111122,1111122,1111122' 
COMPS,ioos:station:USF.COMPS:C10:1,2015-10-04T10:05:00Z,27.1690,-82.9260,3.0,6.945,300.494,9.023,'1111122,1111122,1111122' 
COMPS,ioos:station:USF.COMPS:C10:1,2015-10-04T10:35:00Z,27.1690,-82.9260,3.0,7.642,294.16,9.44,'1111122,1111122,1111122' 
COMPS,ioos:station:USF.COMPS:C10:1,2015-10-04T11:05:00Z,27.1690,-82.9260,3.0,8.105,297.987,10.58,'1111122,1111122,1111122' 
COMPS,ioos:station:USF.COMPS:C10:1,2015-10-04T11:35:00Z,27.1690,-82.9260,3.0,7.35,294.302,9.977,'1111122,1111122,1111122' 
COMPS,ioos:station:USF.COMPS:C10:1,2015-10-04T12:05:00Z,27.1690,-82.9260,3.0,8.846,287.061,12.403,'1111122,1111122,1111122' 
COMPS,ioos:station:USF.COMPS:C10:1,2015-10-04T12:35:00Z,27.1690,-82.9260,3.0,7.895,296.859,10.91,'1111122,1111122,1111122' 
COMPS,ioos:station:USF.COMPS:C10:1,2015-10-04T13:05:00Z,27.1690,-82.9260,3.0,8.927,305.513,11.423,'1111122,1111122,1111122' 
COMPS,ioos:station:USF.COMPS:C10:1,2015-10-04T13:35:00Z,27.1690,-82.9260,3.0,8.385,316.394,10.46,'1111122,1111122,1111122' 
COMPS,ioos:station:USF.COMPS:C10:1,2015-10-04T14:05:00Z,27.1690,-82.9260,3.0,7.276,304.195,9.967,'1111122,1111122,1111122' 
COMPS,ioos:station:USF.COMPS:C10:1,2015-10-04T14:35:00Z,27.1690,-82.9260,3.0,10.122,312.705,15.437,'1111122,1111122,1111122' 
COMPS,ioos:station:USF.COMPS:C10:1,2015-10-04T15:05:00Z,27.1690,-82.9260,3.0,7.22,306.213,9.52,'1111122,1111122,1111122' 
COMPS,ioos:station:USF.COMPS:C10:1,2015-10-04T15:35:00Z,27.1690,-82.9260,3.0,10.174,291.143,13.887,'1111122,1111122,1111122' 
COMPS,ioos:station:USF.COMPS:C10:1,2015-10-04T16:05:00Z,27.1690,-82.9260,3.0,9.136,284.109,11.87,'1111122,1111122,1111122' 
COMPS,ioos:station:USF.COMPS:C10:1,2015-10-04T16:35:00Z,27.1690,-82.9260,3.0,9.22,298.494,11.037,'1111122,1111122,1111122' 
COMPS,ioos:station:USF.COMPS:C10:1,2015-10-04T17:05:00Z,27.1690,-82.9260,3.0,7.644,276.08,11.86,'1111122,1111122,1111122' 
COMPS,ioos:station:USF.COMPS:C10:1,2015-10-04T17:35:00Z,27.1690,-82.9260,3.0,12.39,290.01,15.723,'1111122,1111122,1111122' 
COMPS,ioos:station:USF.COMPS:C10:1,2015-10-04T18:05:00Z,27.1690,-82.9260,3.0,10.775,301.634,13.12,'1111122,1111122,1111122' 
COMPS,ioos:station:USF.COMPS:C10:1,2015-10-04T18:35:00Z,27.1690,-82.9260,3.0,8.583,301.539,10.78,'1111122,1111122,1111122' 
COMPS,ioos:station:USF.COMPS:C10:1,2015-10-04T19:05:00Z,27.1690,-82.9260,3.0,9.121,300.792,11.807,'1111122,1111122,1111122' 
COMPS,ioos:station:USF.COMPS:C10:1,2015-10-04T19:35:00Z,27.1690,-82.9260,3.0,10.614,298.562,13.363,'1111122,1111122,1111122' 
COMPS,ioos:station:USF.COMPS:C10:1,2015-10-04T20:05:00Z,27.1690,-82.9260,3.0,11.556,298.274,14.64,'1111122,1111122,1111122' 
COMPS,ioos:station:USF.COMPS:C10:1,2015-10-04T20:35:00Z,27.1690,-82.9260,3.0,11.398,297.396,14.92,'1111122,1111122,1111122' 
COMPS,ioos:station:USF.COMPS:C10:1,2015-10-04T21:05:00Z,27.1690,-82.9260,3.0,10.946,300.774,14.53,'1111122,1111122,1111122' 
COMPS,ioos:station:USF.COMPS:C10:1,2015-10-04T21:35:00Z,27.1690,-82.9260,3.0,11.374,313.261,14.557,'1111122,1111122,1111122' 
COMPS,ioos:station:USF.COMPS:C10:1,2015-10-04T22:05:00Z,27.1690,-82.9260,3.0,9.735,311.82,13.573,'1111122,1111122,1111122' 
COMPS,ioos:station:USF.COMPS:C10:1,2015-10-04T22:35:00Z,27.1690,-82.9260,3.0,9.695,311.347,12.163,'1111122,1111122,1111122' 
COMPS,ioos:station:USF.COMPS:C10:1,2015-10-04T23:05:00Z,27.1690,-82.9260,3.0,10.675,309.135,13.163,'1111122,1111122,1111122' 
COMPS,ioos:station:USF.COMPS:C10:1,2015-10-04T23:35:00Z,27.1690,-82.9260,3.0,9.997,305.583,13.16,'1111122,1111122,1111122' 
COMPS,ioos:station:USF.COMPS:C10:1,2015-10-05T00:05:00Z,27.1690,-82.9260,3.0,8.685,311.994,12.217,'1111122,1111122,1111122' 
COMPS,ioos:station:USF.COMPS:C10:1,2015-10-05T00:35:00Z,27.1690,-82.9260,3.0,7.875,307.486,10.363,'1111122,1111122,1111122' 
COMPS,ioos:station:USF.COMPS:C10:1,2015-10-05T01:05:00Z,27.1690,-82.9260,3.0,8.6,310.63,11.117,'1111122,1111122,1111122' 
COMPS,ioos:station:USF.COMPS:C10:1,2015-10-05T01:35:00Z,27.1690,-82.9260,3.0,8.293,316.342,10.85,'1111122,1111122,1111122' 
COMPS,ioos:station:USF.COMPS:C10:1,2015-10-05T02:05:00Z,27.1690,-82.9260,3.0,7.195,330.15,10.587,'1111122,1111122,1111122' 
COMPS,ioos:station:USF.COMPS:C10:1,2015-10-05T02:35:00Z,27.1690,-82.9260,3.0,7.956,301.882,10.947,'1111122,1111122,1111122' 
COMPS,ioos:station:USF.COMPS:C10:1,2015-10-05T04:05:00Z,27.1690,-82.9260,3.0,7.605,311.333,9.89,'1111122,1111122,1111122' 
COMPS,ioos:station:USF.COMPS:C10:1,2015-10-05T04:35:00Z,27.1690,-82.9260,3.0,8.568,312.755,10.4,'1111122,1111122,1111122' 
COMPS,ioos:station:USF.COMPS:C10:1,2015-10-05T05:05:00Z,27.1690,-82.9260,3.0,6.973,338.221,8.797,'1111122,1111122,1111122' 
COMPS,ioos:station:USF.COMPS:C10:1,2015-10-05T05:35:00Z,27.1690,-82.9260,3.0,8.726,329.496,10.903,'1111122,1111122,1111122' 
COMPS,ioos:station:USF.COMPS:C10:1,2015-10-05T06:05:00Z,27.1690,-82.9260,3.0,8.005,316.707,10.327,'1111122,1111122,1111122' 
COMPS,ioos:station:USF.COMPS:C10:1,2015-10-05T06:35:00Z,27.1690,-82.9260,3.0,8.569,312.727,10.727,'1111122,1111122,1111122' 
COMPS,ioos:station:USF.COMPS:C10:1,2015-10-05T07:05:00Z,27.1690,-82.9260,3.0,5.737,336.048,8.577,'1111122,1111122,1111122' 
COMPS,ioos:station:USF.COMPS:C10:1,2015-10-05T07:35:00Z,27.1690,-82.9260,3.0,6.13,315.088,8.283,'1111122,1111122,1111122' 
COMPS,ioos:station:USF.COMPS:C10:1,2015-10-05T08:05:00Z,27.1690,-82.9260,3.0,7.505,307.155,10.33,'1111122,1111122,1111122' 
COMPS,ioos:station:USF.COMPS:C10:1,2015-10-05T08:35:00Z,27.1690,-82.9260,3.0,7.498,318.101,9.493,'1111122,1111122,1111122' 
COMPS,ioos:station:USF.COMPS:C10:1,2015-10-05T09:05:00Z,27.1690,-82.9260,3.0,7.953,318.461,13.993,'1111122,1111122,1111122' 
COMPS,ioos:station:USF.COMPS:C10:1,2015-10-05T09:35:00Z,27.1690,-82.9260,3.0,6.358,330.782,8.293,'1111122,1111122,1111122' 
COMPS,ioos:station:USF.COMPS:C10:1,2015-10-05T10:05:00Z,27.1690,-82.9260,3.0,4.259,326.525,6.613,'1111122,1111122,1111122' 
COMPS,ioos:station:USF.COMPS:C10:1,2015-10-05T10:35:00Z,27.1690,-82.9260,3.0,5.806,327.151,8.157,'1111122,1111122,1111122' 
COMPS,ioos:station:USF.COMPS:C10:1,2015-10-05T11:05:00Z,27.1690,-82.9260,3.0,4.757,311.583,6.2,'1111122,1111122,1111122' 
COMPS,ioos:station:USF.COMPS:C10:1,2015-10-05T11:35:00Z,27.1690,-82.9260,3.0,7.299,309.565,10.637,'1111122,1111122,1111122' 
COMPS,ioos:station:USF.COMPS:C10:1,2015-10-05T12:05:00Z,27.1690,-82.9260,3.0,7.638,321.418,9.587,'1111122,1111122,1111122' 
COMPS,ioos:station:USF.COMPS:C10:1,2015-10-05T12:35:00Z,27.1690,-82.9260,3.0,6.271,312.103,8.663,'1111122,1111122,1111122' 
COMPS,ioos:station:USF.COMPS:C10:1,2015-10-05T13:05:00Z,27.1690,-82.9260,3.0,6.219,320.734,8.197,'1111122,1111122,1111122' 
COMPS,ioos:station:USF.COMPS:C10:1,2015-10-05T13:35:00Z,27.1690,-82.9260,3.0,5.973,310.334,7.563,'1111122,1111122,1111122' 
COMPS,ioos:station:USF.COMPS:C10:1,2015-10-05T14:05:00Z,27.1690,-82.9260,3.0,5.865,309.143,7.873,'1111122,1111122,1111122' 
COMPS,ioos:station:USF.COMPS:C10:1,2015-10-05T14:35:00Z,27.1690,-82.9260,3.0,7.041,349.357,8.36,'1111122,1111122,1111122' 
COMPS,ioos:station:USF.COMPS:C10:1,2015-10-05T15:05:00Z,27.1690,-82.9260,3.0,4.07,321.918,7.14,'1111122,1111122,1111122' 
COMPS,ioos:station:USF.COMPS:C10:1,2015-10-05T15:35:00Z,27.1690,-82.9260,3.0,3.941,332.197,6.223,'1111122,1111122,1111122' 
COMPS,ioos:station:USF.COMPS:C10:1,2015-10-05T16:05:00Z,27.1690,-82.9260,3.0,3.215,349.182,5.277,'1111122,1111122,1111122' 
COMPS,ioos:station:USF.COMPS:C10:1,2015-10-05T16:35:00Z,27.1690,-82.9260,3.0,2.632,338.155,5.09,'1111122,1111122,1111122' 
COMPS,ioos:station:USF.COMPS:C10:1,2015-10-05T17:05:00Z,27.1690,-82.9260,3.0,3.018,315.322,4.317,'1111122,1111122,1111122' 
COMPS,ioos:station:USF.COMPS:C10:1,2015-10-05T17:35:00Z,27.1690,-82.9260,3.0,4.85,327.127,6.207,'1111122,1111122,1111122' 
COMPS,ioos:station:USF.COMPS:C10:1,2015-10-05T18:05:00Z,27.1690,-82.9260,3.0,6.1,319.661,7.92,'1111122,1111122,1111122' 
COMPS,ioos:station:USF.COMPS:C10:1,2015-10-05T18:35:00Z,27.1690,-82.9260,3.0,5.916,317.709,8.077,'1111122,1111122,1111122' 
COMPS,ioos:station:USF.COMPS:C10:1,2015-10-05T19:05:00Z,27.1690,-82.9260,3.0,5.64,321.245,7.1,'1111122,1111122,1111122' 
COMPS,ioos:station:USF.COMPS:C10:1,2015-10-05T19:35:00Z,27.1690,-82.9260,3.0,5.556,0.425,7.193,'1111122,1111122,1111122' 
COMPS,ioos:station:USF.COMPS:C10:1,2015-10-05T21:05:00Z,27.1690,-82.9260,3.0,5.602,341.639,7.093,'1111122,1111122,1111122' 
COMPS,ioos:station:USF.COMPS:C10:1,2015-10-05T21:35:00Z,27.1690,-82.9260,3.0,6.021,349.203,7.85,'1111122,1111122,1111122' 
COMPS,ioos:station:USF.COMPS:C10:1,2015-10-05T22:05:00Z,27.1690,-82.9260,3.0,6.777,343.354,9.79,'1111122,1111122,1111122' 
COMPS,ioos:station:USF.COMPS:C10:1,2015-10-05T22:35:00Z,27.1690,-82.9260,3.0,5.676,338.235,7.527,'1111122,1111122,1111122' 
COMPS,ioos:station:USF.COMPS:C10:1,2015-10-05T23:05:00Z,27.1690,-82.9260,3.0,5.563,344.526,7.493,'1111122,1111122,1111122' 
COMPS,ioos:station:USF.COMPS:C10:1,2015-10-05T23:35:00Z,27.1690,-82.9260,3.0,5.674,347.25,7.71,'1111122,1111122,1111122' 
COMPS,ioos:station:USF.COMPS:C10:1,2015-10-06T00:05:00Z,27.1690,-82.9260,3.0,6.64,7.272,8.113,'1111122,1111122,1111122' 
COMPS,ioos:station:USF.COMPS:C10:1,2015-10-06T00:35:00Z,27.1690,-82.9260,3.0,5.378,357.635,6.49,'1111122,1111122,1111122' 
COMPS,ioos:station:USF.COMPS:C10:1,2015-10-06T02:05:00Z,27.1690,-82.9260,3.0,2.721,38.875,5.97,'1111122,1111122,1111122' 
COMPS,ioos:station:USF.COMPS:C10:1,2015-10-06T02:35:00Z,27.1690,-82.9260,3.0,3.848,31.731,5.47,'1111122,1111122,1111122' 
COMPS,ioos:station:USF.COMPS:C10:1,2015-10-06T04:05:00Z,27.1690,-82.9260,3.0,3.972,26.37,5.327,'1111122,1111122,1111122' 
COMPS,ioos:station:USF.COMPS:C10:1,2015-10-06T04:35:00Z,27.1690,-82.9260,3.0,3.028,25.661,4.487,'1111122,1111122,1111122' 
COMPS,ioos:station:USF.COMPS:C10:1,2015-10-06T05:05:00Z,27.1690,-82.9260,3.0,3.114,43.571,4.183,'1111122,1111122,1111122' 
COMPS,ioos:station:USF.COMPS:C10:1,2015-10-06T05:35:00Z,27.1690,-82.9260,3.0,1.626,27.199,3.01,'1111122,1111122,1111122' 
COMPS,ioos:station:USF.COMPS:C10:1,2015-10-06T06:05:00Z,27.1690,-82.9260,3.0,1.269,70.819,2.523,'1111122,1111122,1111122' 
COMPS,ioos:station:USF.COMPS:C10:1,2015-10-06T06:35:00Z,27.1690,-82.9260,3.0,1.332,172.047,2.073,'1111122,1111122,1111122' 
COMPS,ioos:station:USF.COMPS:C10:1,2015-10-06T07:05:00Z,27.1690,-82.9260,3.0,1.706,191.461,2.713,'1111122,1111122,1111122' 
COMPS,ioos:station:USF.COMPS:C10:1,2015-10-06T07:35:00Z,27.1690,-82.9260,3.0,1.489,184.037,2.613,'1111122,1111122,1111122' 
COMPS,ioos:station:USF.COMPS:C10:1,2015-10-06T08:05:00Z,27.1690,-82.9260,3.0,0.913,189.181,1.643,'1111122,1111122,1111122' 
COMPS,ioos:station:USF.COMPS:C10:1,2015-10-06T08:35:00Z,27.1690,-82.9260,3.0,0.84,198.282,1.617,'1111122,1111122,1111122' 